Tri-Cities, TN

9:43 AM EDT on April 26, 2017 (GMT -0400)
Tri-Cities Regional Tennessee / Virginia

Weather History for KTRI - October, 2013

Change the Weather History Date:

Thursday, October 3, 2013

  Actual Average Record
Temperature  
Mean Temperature 68 °F 60 °F  
Max Temperature 80 °F 73 °F 88 °F (2007)
Min Temperature 55 °F 48 °F 25 °F (1974)
Degree Days  
Heating Degree Days 0 5  
Month to date heating degree days 0 15  
Since 1 July heating degree days 19 68  
Cooling Degree Days 3 1  
Month to date cooling degree days 4 3  
Year to date cooling degree days 982 971  
Growing Degree Days 18 (Base 50)    
Moisture  
Dew Point 57 °F    
Average Humidity 68    
Maximum Humidity 93    
Minimum Humidity 42    
Precipitation  
Precipitation 0.00 in 0.06 in 1.92 in (1961)
Month to date precipitation 0.00 0.20  
Year to date precipitation 46.72 32.64  
Snow  
Snow 0.00 in 0.00 in - ()
Month to date snowfall 0.0 0.0  
Since 1 July snowfall 0.0 0.0  
Since 1 September snowfall 0.0 0.0  
Snow Depth 0.00 in    
Sea Level Pressure  
Sea Level Pressure 30.10 in    
Wind  
Wind Speed 1 mph (SSE)    
Max Wind Speed 7 mph    
Max Gust Speed 9 mph    
Visibility 7 miles    
Events      
T = Trace of Precipitation, MM = Missing Value Source: NWS Daily Summary

Daily Weather History Graph

Daily Weather History Graph

Search for Another Location

Airport or City:

Trip Planner

Search our weather history database for the weather conditions in past years. The results will help you decide how hot, cold, wet, or windy it might be!

Date:

Astronomy

Oct. 03, 2013 Rise Set
Actual Time 7:26 AM EDT 7:09 PM EDT
Civil Twilight 7:00 AM EDT 7:35 PM EDT
Nautical Twilight 6:31 AM EDT 8:05 PM EDT
Astronomical Twilight 6:01 AM EDT 8:35 PM EDT
Moon 6:00 AM EDT (10/3) 6:17 PM EDT (10/3)
Length of Visible Light 12h 34m
Length of Day
11h 43m
Waning Crescent, 2% of the Moon is Illuminated
Oct 3
Waning Crescent
Oct 4
New
Oct 11
First Quarter
Oct 18
Full
Oct 26
Last Quarter

Hourly Weather History & Observations

Time (EDT) Temp. Heat Index Dew Point Humidity Pressure Visibility Wind Dir Wind Speed Gust Speed Precip Events Conditions
12:53 AM 57.0 °F - 55.0 °F 93% 30.11 in 4.0 mi NNE 3.5 mph - N/A   Scattered Clouds
1:53 AM 57.0 °F - 55.0 °F 93% 30.11 in 4.0 mi Calm Calm - N/A   Scattered Clouds
2:53 AM 57.0 °F - 55.0 °F 93% 30.10 in 4.0 mi Calm Calm - N/A   Scattered Clouds
3:53 AM 57.0 °F - 55.0 °F 93% 30.09 in 4.0 mi Calm Calm - N/A   Partly Cloudy
4:53 AM 57.0 °F - 55.0 °F 93% 30.09 in 4.0 mi Calm Calm - N/A   Partly Cloudy
5:43 AM 57.0 °F - 55.0 °F 93% 30.16 in 2.0 mi Calm Calm - N/A   Mostly Cloudy
5:53 AM 57.0 °F - 55.0 °F 93% 30.09 in 2.0 mi NE 3.5 mph - N/A   Mostly Cloudy
6:53 AM 57.0 °F - 55.0 °F 93% 30.10 in 2.0 mi East 3.5 mph - N/A   Mostly Cloudy
7:06 AM 57.9 °F - 55.9 °F 93% 30.16 in 5.0 mi Calm Calm - N/A   Mostly Cloudy
7:53 AM 59.0 °F - 55.9 °F 90% 30.12 in 5.0 mi Calm Calm - N/A   Mostly Cloudy
8:53 AM 60.1 °F - 57.0 °F 90% 30.13 in 6.0 mi Calm Calm - N/A   Mostly Cloudy
9:53 AM 63.0 °F - 57.9 °F 84% 30.14 in 7.0 mi Calm Calm - N/A   Mostly Cloudy
10:53 AM 66.0 °F - 57.9 °F 75% 30.14 in 10.0 mi Calm Calm - N/A   Mostly Cloudy
11:53 AM 70.0 °F - 59.0 °F 68% 30.12 in 10.0 mi SW 3.5 mph - N/A   Mostly Cloudy
12:53 PM 73.0 °F - 59.0 °F 61% 30.12 in 10.0 mi Calm Calm - N/A   Mostly Cloudy
1:53 PM 75.9 °F - 60.1 °F 58% 30.09 in 10.0 mi SSE 3.5 mph - N/A   Mostly Cloudy
2:53 PM 78.1 °F - 57.9 °F 50% 30.07 in 10.0 mi WSW 4.6 mph - N/A   Mostly Cloudy
3:53 PM 80.1 °F 80.2 °F 55.9 °F 43% 30.05 in 10.0 mi South 5.8 mph - N/A   Mostly Cloudy
4:53 PM 79.0 °F - 55.9 °F 45% 30.04 in 10.0 mi South 3.5 mph - N/A   Mostly Cloudy
5:53 PM 78.1 °F - 57.0 °F 48% 30.04 in 10.0 mi SE 3.5 mph - N/A   Scattered Clouds
6:53 PM 75.0 °F - 57.9 °F 55% 30.05 in 10.0 mi Calm Calm - N/A   Scattered Clouds
7:53 PM 66.0 °F - 57.9 °F 75% 30.06 in 10.0 mi Calm Calm - N/A   Scattered Clouds
8:53 PM 63.0 °F - 57.9 °F 84% 30.07 in 10.0 mi Calm Calm - N/A   Scattered Clouds
9:53 PM 61.0 °F - 57.9 °F 90% 30.09 in 8.0 mi Calm Calm - N/A   Partly Cloudy
10:53 PM 61.0 °F - 57.9 °F 90% 30.09 in 9.0 mi Calm Calm - N/A   Clear